Location: Bishausen
(51.6334°N, 9.9631°E)
Time: 11:34:19
(UTC+00:00)

Cosmos 1408 - Pass Details

Date: 23 May 2024
Orbit: 362 x 376 km, 82.6° (Epoch: 19 June)

Event Time Altitude Azimuth Distance (km) Brightness Sun altitude
Exits shadow 23:56:11 - 107° (ESE) 2,236 5.9 -17.2°
Rises 23:56:21 0° 105° (ESE) 2,204 5.9 -17.2°
Enters shadow 00:53:01 -72° 194° (SSW) 12,530 9.7 -14.7°
Maximum altitude 01:30:31 49° 96° (E) 482 2.7 -12.0°
